FW6033 Weather Reports


time (UTC)temp
F
wind
direction
speed
knots
gust
knots
rain 1hr
in
rain 24hr
in
rain mn
in
humidity
%
barometer
mb
20260504173050 53 274 13.9 20.9 0.00 0.00 0.00 33 996.3
20260504171547 52 302 8.7 22.6 0.00 0.00 0.00 36 996.4
20260504081545 37 284 7.8 9.6 0.00 0.00 0.00 45 998.1
20260504050116 41 298 7.8 11.3 0.00 0.00 0.00 41 999.6
20260504044515 42 275 9.6 12.2 0.00 0.00 0.00 40 999.9
20260504043016 42 292 9.6 13.0 0.00 0.00 0.00 39 999.9
20260504041514 42 299 7.8 11.3 0.00 0.00 0.00 39 1000.1
20260504040033 43 287 7.8 11.3 0.00 0.00 0.00 39 1000.1
20260504034512 43 305 7.8 11.3 0.00 0.00 0.00 39 1000.1
20260504033012 44 295 8.7 12.2 0.00 0.00 0.00 37 1000.2
20260504031513 44 299 8.7 12.2 0.00 0.00 0.00 38 1000.0
20260504030010 44 296 9.6 13.9 0.00 0.00 0.00 38 999.9
20260504024509 44 297 7.8 10.4 0.00 0.00 0.00 39 999.9
20260504023010 44 304 8.7 10.4 0.00 0.00 0.00 39 999.7
20260504021509 46 284 6.1 7.8 0.00 0.00 0.00 37 999.7
20260504020008 49 276 3.5 7.0 0.00 0.00 0.00 32 999.7
20260504014520 51 271 4.3 7.0 0.00 0.00 0.00 30 999.7
20260504013006 52 276 1.7 6.1 0.00 0.00 0.00 30 999.8
20260504011506 53 300 6.1 8.7 0.00 0.00 0.00 29 999.8
20260504010004 53 349 5.2 10.4 0.00 0.00 0.00 28 999.9
20260504004504 53 321 10.4 16.5 0.00 0.00 0.00 27 1000.1
20260504003008 54 325 7.0 19.1 0.00 0.00 0.00 27 1000.1
20260504001502 54 286 13.0 21.7 0.00 0.00 0.00 26 1000.2
20260504000001 55 300 11.3 16.5 0.00 0.00 0.00 25 1000.3
20260503234700 55 290 13.0 23.5 0.00 0.00 0.00 25 1000.1
20260503233059 56 331 10.4 17.4 0.00 0.00 0.00 24 1000.1
20260503231558 55 273 9.6 18.2 0.00 0.00 0.00 22 1000.3
20260503230104 55 330 12.2 21.7 0.00 0.00 0.00 23 1000.4
20260503224558 56 255 12.2 16.5 0.00 0.00 0.00 20 1000.5
20260503223057 57 304 7.0 26.9 0.00 0.00 0.00 24 1000.5
20260503221558 55 307 12.2 18.2 0.00 0.00 0.00 23 1000.7
20260503220054 56 306 11.3 20.0 0.00 0.00 0.00 22 1000.8
20260503214552 56 272 13.9 24.3 0.00 0.00 0.00 22 1001.3
20260503213051 55 249 13.0 26.1 0.00 0.00 0.00 19 1001.4
20260503211550 56 257 10.4 18.2 0.00 0.00 0.00 21 1001.6
20260503210047 55 254 16.5 26.1 0.00 0.00 0.00 18 1001.9
20260503204546 55 286 11.3 23.5 0.00 0.00 0.00 21 1002.1
20260503203047 54 294 13.9 25.2 0.00 0.00 0.00 18 1002.3
20260503201544 54 310 13.9 25.2 0.00 0.00 0.00 25 1002.4
20260503200045 54 296 15.6 20.0 0.00 0.00 0.00 24 1002.4
20260503194543 55 302 12.2 21.7 0.00 0.00 0.00 24 1002.5
20260503193047 53 259 13.9 34.8 0.00 0.00 0.00 23 1002.1
20260503191542 54 318 15.6 25.2 0.00 0.00 0.00 24 1002.4
20260503190042 55 272 15.6 24.3 0.00 0.00 0.00 20 1002.4
20260503184538 54 284 11.3 23.5 0.00 0.00 0.00 23 1002.7
20260503183052 54 317 13.9 21.7 0.00 0.00 0.00 27 1002.9
20260503181538 54 280 11.3 27.8 0.00 0.00 0.00 28 1003.1
20260503180035 54 244 14.8 21.7 0.00 0.00 0.00 26 1003.1
20260503174533 54 327 12.2 25.2 0.00 0.00 0.00 27 1003.2